GW3763 Weather Reports


Display with metric or nautical units.
time (UTC)temp
F
wind
direction
speed
MPH
gust
MPH
rain 1hr
in
rain 24hr
in
rain mn
in
humidity
%
barometer
mb
20260507193208 0 266 4.0 4.0 0.00 0.00 0.00 1006.7
20260507192704 0 251 4.0 8.0 0.00 0.00 0.00 1006.7
20260507192156 0 19 4.0 13.0 0.00 0.00 0.00 1007.0
20260507191651 0 270 4.0 8.0 0.00 0.00 0.00 1006.7
20260507191148 0 258 5.0 7.0 0.00 0.00 0.00 1006.7
20260507190645 0 224 4.0 9.0 0.00 0.00 0.00 1006.8
20260507190144 0 355 9.0 10.0 0.00 0.00 0.00 1006.6
20260507185642 0 216 4.0 7.0 0.00 0.00 0.00 1006.7
20260507185138 0 259 4.0 7.0 0.00 0.00 0.00 1006.7
20260507184636 0 243 4.0 8.0 0.00 0.00 0.00 1007.0
20260507184134 0 221 2.0 6.0 0.00 0.00 0.00 1006.8
20260507183630 0 255 2.0 7.0 0.00 0.00 0.00 1007.2
20260507183127 0 242 2.0 7.0 0.00 0.00 0.00 1007.3
20260507182624 0 246 3.0 8.0 0.00 0.00 0.00 1007.2
20260507182120 0 3 7.0 9.0 0.00 0.00 0.00 1007.4
20260507181617 0 299 9.0 14.0 0.00 0.00 0.00 1007.1
20260507181113 0 263 10.0 11.0 0.00 0.00 0.00 1007.3
20260507180609 0 326 13.0 15.0 0.00 0.00 0.00 1007.4
20260507180107 0 237 10.0 11.0 0.00 0.00 0.00 1007.3
20260507175602 0 227 6.0 13.0 0.00 0.00 0.00 1007.3
20260507175100 0 259 4.0 8.0 0.00 0.00 0.00 1007.4
20260507174557 0 338 5.0 7.0 0.00 0.00 0.00 1007.4
20260507174055 0 232 3.0 6.0 0.00 0.00 0.00 1007.6
20260507173552 0 221 2.0 7.0 0.00 0.00 0.00 1007.7
20260507173049 0 332 6.0 13.0 0.00 0.00 0.00 1007.7
20260507172544 0 233 4.0 9.0 0.00 0.00 0.00 1007.6
20260507172042 0 276 8.0 11.0 0.00 0.00 0.00 1007.6
20260507171537 0 268 5.0 7.0 0.00 0.00 0.00 1007.6
20260507171034 0 234 5.0 8.0 0.00 0.00 0.00 1007.7
20260507170531 0 220 1.0 6.0 0.00 0.00 0.00 1007.8
20260507170028 0 245 5.0 6.0 0.00 0.00 0.00 1008.1
20260507165524 0 238 4.0 7.0 0.00 0.00 0.00 1007.9
20260507165020 0 244 3.0 14.0 0.00 0.00 0.00 1008.2
20260507164517 0 226 3.0 8.0 0.00 0.00 0.00 1008.0
20260507164014 0 260 5.0 7.0 0.00 0.00 0.00 1008.1
20260507163511 0 245 6.0 7.0 0.00 0.00 0.00 1008.0
20260507163009 0 233 4.0 6.0 0.00 0.00 0.00 1008.1
20260507162508 0 228 4.0 6.0 0.00 0.00 0.00 1008.1
20260507162006 0 219 4.0 9.0 0.00 0.00 0.00 1008.2
20260507161502 0 216 2.0 7.0 0.00 0.00 0.00 1008.2
20260507160959 0 215 5.0 7.0 0.00 0.00 0.00 1008.3
20260507160455 0 229 6.0 8.0 0.00 0.00 0.00 1008.5
20260507155950 0 229 4.0 7.0 0.00 0.00 0.00 1008.3
20260507155447 0 254 2.0 8.0 0.00 0.00 0.00 1008.5
20260507154944 0 327 7.0 10.0 0.00 0.00 0.00 1008.7
20260507154440 0 297 7.0 10.0 0.00 0.00 0.00 1008.6
20260507153938 0 232 4.0 10.0 0.00 0.00 0.00 1008.6
20260507153435 0 313 6.0 9.0 0.00 0.00 0.00 1008.8
20260507152931 0 224 4.0 7.0 0.00 0.00 0.00 1009.0
20260507152427 0 232 5.0 7.0 0.00 0.00 0.00 1008.8
20260507151923 0 224 3.0 7.0 0.00 0.00 0.00 1009.1
20260507151420 0 221 4.0 11.0 0.00 0.00 0.00 1009.1
20260507150917 0 257 6.0 9.0 0.00 0.00 0.00 1008.9
20260507150413 0 252 5.0 7.0 0.00 0.00 0.00 1009.2
20260507145910 0 327 6.0 10.0 0.00 0.00 0.00 1009.1
20260507145406 0 218 1.0 2.0 0.00 0.00 0.00 1009.1
20260507144903 0 266 7.0 10.0 0.00 0.00 0.00 1009.5
20260507144400 0 217 1.0 8.0 0.00 0.00 0.00 1009.1
20260507143857 0 266 4.0 7.0 0.00 0.00 0.00 1009.1
20260507143354 0 218 2.0 6.0 0.00 0.00 0.00 1009.1
20260507142850 0 251 4.0 7.0 0.00 0.00 0.00 1009.2
20260507142347 0 244 7.0 9.0 0.00 0.00 0.00 1009.5
20260507141843 0 251 5.0 7.0 0.00 0.00 0.00 1009.4
20260507141340 0 228 8.0 9.0 0.00 0.00 0.00 1009.1
20260507140837 0 220 2.0 3.0 0.00 0.00 0.00 1009.2
20260507140333 0 217 2.0 4.0 0.00 0.00 0.00 1009.5
20260507135831 0 223 2.0 6.0 0.00 0.00 0.00 1009.5
20260507135328 0 277 5.0 8.0 0.00 0.00 0.00 1009.4
20260507134825 0 237 4.0 7.0 0.00 0.00 0.00 1009.4
20260507134321 0 236 2.0 4.0 0.00 0.00 0.00 1009.2
20260507133817 0 254 6.0 7.0 0.00 0.00 0.00 1009.2
20260507133313 0 223 5.0 7.0 0.00 0.00 0.00 1009.5
20260507132812 0 269 4.0 8.0 0.00 0.00 0.00 1009.5
20260507132308 0 232 3.0 4.0 0.00 0.00 0.00 1009.5
20260507131805 0 238 4.0 6.0 0.00 0.00 0.00 1009.2
20260507131302 0 295 4.0 7.0 0.00 0.00 0.00 1009.4
20260507130758 0 243 2.0 4.0 0.00 0.00 0.00 1009.6
20260507130256 0 239 5.0 7.0 0.00 0.00 0.00 1009.4
20260507125755 0 236 6.0 7.0 0.00 0.00 0.00 1009.4
20260507125252 0 217 0.0 3.0 0.00 0.00 0.00 1009.4
20260507124748 0 224 4.0 4.0 0.00 0.00 0.00 1009.7
20260507124245 0 248 5.0 8.0 0.00 0.00 0.00 1009.5
20260507123744 0 228 3.0 7.0 0.00 0.00 0.00 1009.4
20260507123241 0 219 2.0 6.0 0.00 0.00 0.00 1009.4
20260507122736 0 249 6.0 7.0 0.00 0.00 0.00 1009.5
20260507122232 0 333 6.0 8.0 0.00 0.00 0.00 1009.4
20260507121728 0 263 4.0 8.0 0.00 0.00 0.00 1009.2
20260507121224 0 222 1.0 4.0 0.00 0.00 0.00 1009.2
20260507120720 0 235 3.0 3.0 0.00 0.00 0.00 1009.5
20260507120218 0 235 3.0 3.0 0.00 0.00 0.00 1009.2
20260507115713 0 223 2.0 4.0 0.00 0.00 0.00 1009.2
20260507115209 0 228 2.0 3.0 0.00 0.00 0.00 1009.2
20260507114705 0 233 2.0 4.0 0.00 0.00 0.00 1009.1
20260507114203 0 222 3.0 6.0 0.00 0.00 0.00 1009.4
20260507113700 0 228 3.0 4.0 0.00 0.00 0.00 1009.2
20260507113157 0 230 2.0 4.0 0.00 0.00 0.00 1009.0
20260507112654 0 231 2.0 3.0 0.00 0.00 0.00 1009.2
20260507112151 0 224 2.0 4.0 0.00 0.00 0.00 1009.0
20260507111648 0 218 2.0 3.0 0.00 0.00 0.00 1009.1
20260507111145 0 224 2.0 4.0 0.00 0.00 0.00 1009.0
20260507110641 0 219 1.0 3.0 0.00 0.00 0.00 1009.2
20260507110138 0 220 2.0 3.0 0.00 0.00 0.00 1009.0
20260507105635 0 221 1.0 2.0 0.00 0.00 0.00 1008.7
20260507105131 0 222 2.0 3.0 0.00 0.00 0.00 1008.7
20260507104628 0 223 2.0 2.0 0.00 0.00 0.00 1008.8
20260507104125 0 217 1.0 3.0 0.00 0.00 0.00 1008.8
20260507103620 0 222 2.0 2.0 0.00 0.00 0.00 1008.6
20260507103118 0 217 0.0 2.0 0.00 0.00 0.00 1008.6
20260507102614 0 220 1.0 2.0 0.00 0.00 0.00 1008.9
20260507102110 0 221 2.0 2.0 0.00 0.00 0.00 1008.8
20260507101606 0 218 2.0 3.0 0.00 0.00 0.00 1008.7
20260507101102 0 220 2.0 3.0 0.00 0.00 0.00 1008.7
20260507100559 0 216 0.0 0.0 0.00 0.00 0.00 1008.6
20260507100058 0 221 1.0 3.0 0.00 0.00 0.00 1008.6
20260507095555 0 217 1.0 1.0 0.00 0.00 0.00 1008.7
20260507095052 0 220 1.0 2.0 0.00 0.00 0.00 1008.7
20260507094548 0 221 2.0 3.0 0.00 0.00 0.00 1008.8
20260507094045 0 260 4.0 6.0 0.00 0.00 0.00 1008.6
20260507093543 0 228 3.0 4.0 0.00 0.00 0.00 1008.4
20260507093041 0 241 4.0 8.0 0.00 0.00 0.00 1008.5
20260507092537 0 251 5.0 7.0 0.00 0.00 0.00 1008.2
20260507092034 0 319 7.0 8.0 0.00 0.00 0.00 1008.2
20260507091531 0 230 3.0 6.0 0.00 0.00 0.00 1008.5
20260507091027 0 231 3.0 4.0 0.00 0.00 0.00 1008.4
20260507090523 0 242 2.0 6.0 0.00 0.00 0.00 1008.7
20260507090020 0 236 3.0 3.0 0.00 0.00 0.00 1008.4
20260507085517 0 242 4.0 4.0 0.00 0.00 0.00 1008.6
20260507085014 0 216 1.0 3.0 0.00 0.00 0.00 1008.7
20260507084510 0 234 3.0 4.0 0.00 0.00 0.00 1008.7
20260507084007 0 229 1.0 2.0 0.00 0.00 0.00 1008.5
20260507083503 0 257 4.0 6.0 0.00 0.00 0.00 1008.7
20260507083000 0 237 3.0 9.0 0.00 0.00 0.00 1008.6
20260507082456 0 229 4.0 7.0 0.00 0.00 0.00 1008.7
20260507081953 0 228 3.0 4.0 0.00 0.00 0.00 1008.9
20260507081449 0 237 3.0 4.0 0.00 0.00 0.00 1008.7
20260507080946 0 239 4.0 6.0 0.00 0.00 0.00 1008.5
20260507080442 0 222 2.0 6.0 0.00 0.00 0.00 1008.5
20260507075937 0 238 4.0 6.0 0.00 0.00 0.00 1008.5
20260507075434 0 254 4.0 6.0 0.00 0.00 0.00 1008.7
20260507074931 0 248 3.0 7.0 0.00 0.00 0.00 1008.6
20260507074428 0 232 3.0 8.0 0.00 0.00 0.00 1008.7
20260507073925 0 291 5.0 8.0 0.00 0.00 0.00 1008.8
20260507073422 0 237 3.0 4.0 0.00 0.00 0.00 1008.8
20260507072919 0 343 6.0 8.0 0.00 0.00 0.00 1008.9
20260507072416 0 344 8.0 9.0 0.00 0.00 0.00 1008.8
20260507071914 0 288 5.0 6.0 0.00 0.00 0.00 1008.8
20260507071410 0 249 5.0 11.0 0.00 0.00 0.00 1008.8
20260507070906 0 243 3.0 3.0 0.00 0.00 0.00 1008.9
20260507070404 0 290 5.0 7.0 0.00 0.00 0.00 1008.7
20260507065901 0 276 4.0 6.0 0.00 0.00 0.00 1008.6
20260507065357 0 219 3.0 4.0 0.00 0.00 0.00 1008.5
20260507064854 0 214 2.0 3.0 0.00 0.00 0.00 1008.5
20260507064353 0 232 2.0 6.0 0.00 0.00 0.00 1008.3
20260507063851 0 319 9.0 9.0 0.00 0.00 0.00 1008.5
20260507063347 0 268 3.0 11.0 0.00 0.00 0.00 1008.4
20260507062844 0 298 6.0 9.0 0.00 0.00 0.00 1008.5
20260507062341 0 242 3.0 4.0 0.00 0.00 0.00 1008.1
20260507061839 0 231 3.0 6.0 0.00 0.00 0.00 1008.3
20260507061337 0 269 8.0 9.0 0.00 0.00 0.00 1008.1
20260507060835 0 228 2.0 4.0 0.00 0.00 0.00 1007.8
20260507060331 0 232 5.0 7.0 0.00 0.00 0.00 1007.9
20260507055828 0 243 5.0 9.0 0.00 0.00 0.00 1007.8
20260507055323 0 222 3.0 3.0 0.00 0.00 0.00 1008.1
20260507054820 0 228 3.0 4.0 0.00 0.00 0.00 1008.0
20260507054316 0 217 0.0 2.0 0.00 0.00 0.00 1008.0
20260507053814 0 231 3.0 4.0 0.00 0.00 0.00 1008.0
20260507053311 0 219 2.0 4.0 0.00 0.00 0.00 1008.1
20260507052810 0 222 2.0 4.0 0.00 0.00 0.00 1007.9
20260507052307 0 219 3.0 6.0 0.00 0.00 0.00 1008.0
20260507051804 0 224 2.0 6.0 0.00 0.00 0.00 1007.9
20260507051301 0 238 3.0 4.0 0.00 0.00 0.00 1007.9
20260507050758 0 229 1.0 3.0 0.00 0.00 0.00 1008.1
20260507050254 0 216 1.0 2.0 0.00 0.00 0.00 1008.0
20260507045751 0 218 1.0 4.0 0.00 0.00 0.00 1008.0
20260507045247 0 217 4.0 4.0 0.00 0.00 0.00 1008.1
20260507044745 0 222 3.0 4.0 0.00 0.00 0.00 1008.4
20260507044241 0 218 3.0 6.0 0.00 0.00 0.00 1008.3
20260507043737 0 219 1.0 3.0 0.00 0.00 0.00 1008.0
20260507043234 0 231 2.0 4.0 0.00 0.00 0.00 1008.3
20260507042731 0 220 3.0 4.0 0.00 0.00 0.00 1008.2
20260507042225 0 220 1.0 2.0 0.00 0.00 0.00 1008.4
20260507041723 0 220 0.0 0.0 0.00 0.00 0.00 1008.2
20260507041220 0 221 1.0 2.0 0.00 0.00 0.00 1008.2
20260507040717 0 220 0.0 1.0 0.00 0.00 0.00 1008.2
20260507040213 0 221 2.0 2.0 0.00 0.00 0.00 1008.1
20260507035709 0 220 1.0 2.0 0.00 0.67 0.67 1008.1
20260507035205 0 220 0.0 2.0 0.00 0.67 0.67 1008.1
20260507034702 0 220 0.0 0.0 0.00 0.67 0.67 1008.1
20260507034159 0 220 0.0 0.0 0.00 0.67 0.67 1008.0
20260507033658 0 220 0.0 2.0 0.00 0.67 0.67 1008.0
20260507033154 0 220 2.0 2.0 0.00 0.67 0.67 1008.2
20260507032652 0 220 0.0 0.0 0.00 0.67 0.67 1008.1
20260507032147 0 220 1.0 2.0 0.00 0.67 0.67 1007.8
20260507031645 0 220 2.0 2.0 0.00 0.67 0.67 1008.1
20260507031141 0 220 1.0 2.0 0.00 0.67 0.67 1008.1
20260507030638 0 220 2.0 3.0 0.00 0.67 0.67 1008.1
20260507030136 0 220 1.0 2.0 0.00 0.67 0.67 1008.2
20260507025633 0 220 0.0 0.0 0.00 0.67 0.67 1008.1
20260507025129 0 220 0.0 1.0 0.00 0.67 0.67 1008.2
20260507024628 0 220 0.0 1.0 0.00 0.67 0.67 1008.5
20260507024124 0 220 1.0 1.0 0.00 0.67 0.67 1008.5
20260507023620 0 220 0.0 0.0 0.00 0.67 0.67 1008.3
20260507023118 0 220 1.0 2.0 0.00 0.67 0.67 1008.3
20260507022614 0 220 0.0 0.0 0.00 0.67 0.67 1008.3
20260507022110 0 220 0.0 0.0 0.00 0.67 0.67 1008.1
20260507021606 0 220 1.0 3.0 0.00 0.67 0.67 1008.9
20260507021102 0 220 2.0 2.0 0.00 0.67 0.67 1008.7
20260507020601 0 220 1.0 2.0 0.00 0.67 0.67 1008.6
20260507020056 0 220 0.0 2.0 0.00 0.67 0.67 1008.5
20260507015555 0 220 1.0 3.0 0.00 0.67 0.67 1008.7
20260507015052 0 219 2.0 2.0 0.00 0.67 0.67 1008.8
20260507014549 0 219 1.0 2.0 0.00 0.67 0.67 1008.8
20260507014044 0 219 0.0 0.0 0.00 0.67 0.67 1008.7
20260507013541 0 219 0.0 2.0 0.00 0.67 0.67 1008.7
20260507013039 0 218 0.0 0.0 0.00 0.67 0.67 1008.6
20260507012536 0 218 1.0 2.0 0.00 0.67 0.67 1008.8
20260507012032 0 221 3.0 4.0 0.00 0.67 0.67 1008.5
20260507011530 0 223 2.0 2.0 0.00 0.67 0.67 1008.3
20260507011025 0 218 0.0 2.0 0.00 0.67 0.67 1008.6
20260507010520 0 216 0.0 2.0 0.00 0.67 0.67 1008.5
20260507010017 0 221 2.0 3.0 0.00 0.67 0.67 1008.5
20260507005514 0 221 2.0 6.0 0.00 0.67 0.67 1008.7
20260507005011 0 221 2.0 6.0 0.00 0.67 0.67 1008.5
20260507004508 0 227 2.0 4.0 0.00 0.67 0.67 1008.2
20260507004005 0 222 2.0 3.0 0.00 0.67 0.67 1008.2
20260507003500 0 254 4.0 4.0 0.00 0.67 0.67 1008.1
20260507002955 0 230 2.0 4.0 0.00 0.67 0.67 1008.0
20260507002452 0 219 2.0 4.0 0.00 0.67 0.67 1007.9
20260507001944 0 228 2.0 3.0 0.00 0.67 0.67 1007.9
20260507001440 0 304 5.0 6.0 0.00 0.67 0.67 1007.8
20260507000938 0 227 2.0 2.0 0.00 0.67 0.67 1007.7
20260507000435 0 220 2.0 4.0 0.00 0.67 0.67 1007.6
20260506235929 0 231 3.0 3.0 0.00 0.67 0.67 1007.6
20260506235427 0 239 4.0 4.0 0.00 0.67 0.67 1007.8
20260506234921 0 217 1.0 3.0 0.00 0.67 0.67 1007.6
20260506234420 0 232 3.0 4.0 0.00 0.67 0.67 1007.5
20260506233917 0 216 2.0 3.0 0.00 0.67 0.67 1007.6
20260506233414 0 224 2.0 7.0 0.00 0.67 0.67 1007.3
20260506232910 0 231 2.0 7.0 0.00 0.67 0.67 1007.2
20260506232406 0 254 4.0 9.0 0.00 0.67 0.67 1007.5
20260506231902 0 264 4.0 6.0 0.00 0.67 0.67 1007.4
20260506231400 0 333 9.0 11.0 0.00 0.67 0.67 1007.4
20260506230857 0 299 5.0 10.0 0.00 0.67 0.67 1007.4
20260506230353 0 284 6.0 11.0 0.00 0.67 0.67 1007.4
20260506225844 0 322 7.0 9.0 0.00 0.67 0.67 1007.5
20260506225342 0 235 5.0 7.0 0.00 0.67 0.67 1007.4
20260506224839 0 259 7.0 9.0 0.00 0.67 0.67 1007.3
20260506224336 0 322 7.0 9.0 0.00 0.67 0.67 1007.2
20260506223832 0 314 8.0 10.0 0.00 0.67 0.67 1007.2
20260506223327 0 291 5.0 9.0 0.00 0.67 0.67 1006.8
20260506222825 0 250 8.0 13.0 0.00 0.67 0.67 1006.7
20260506222320 0 253 4.0 8.0 0.00 0.67 0.67 1006.7
20260506221818 0 353 8.0 10.0 0.00 0.67 0.67 1006.5
20260506221316 0 277 5.0 7.0 0.00 0.67 0.67 1006.4
20260506220813 0 329 9.0 11.0 0.00 0.67 0.67 1006.4
20260506220313 0 253 6.0 9.0 0.00 0.67 0.67 1006.5
20260506215810 0 228 7.0 9.0 0.00 0.67 0.67 1006.3
20260506215306 0 296 6.0 8.0 0.00 0.67 0.67 1006.2
20260506214802 0 281 6.0 11.0 0.00 0.67 0.67 1006.2
20260506214259 0 299 7.0 9.0 0.00 0.67 0.67 1006.4
20260506213758 0 242 5.0 9.0 0.00 0.67 0.67 1006.4
20260506213254 0 232 4.0 11.0 0.00 0.67 0.67 1006.1
20260506212752 0 249 6.0 14.0 0.00 0.67 0.67 1006.0
20260506212247 0 237 3.0 8.0 0.00 0.67 0.67 1006.0
20260506211742 0 259 6.0 11.0 0.00 0.67 0.67 1005.9
20260506211239 0 314 7.0 13.0 0.00 0.67 0.67 1005.7
20260506210736 0 222 4.0 9.0 0.00 0.67 0.67 1005.5
20260506210233 0 263 6.0 13.0 0.00 0.67 0.67 1005.4
20260506205730 0 257 4.0 11.0 0.00 0.67 0.67 1005.5
20260506205225 0 239 6.0 9.0 0.00 0.67 0.67 1005.2
20260506204718 0 262 4.0 11.0 0.00 0.67 0.67 1005.1
20260506204215 0 232 3.0 6.0 0.00 0.67 0.67 1005.1
20260506203713 0 297 9.0 11.0 0.00 0.67 0.67 1004.9
20260506203209 0 256 4.0 6.0 0.00 0.67 0.67 1004.8
20260506202702 0 227 2.0 4.0 0.00 0.67 0.67 1004.6
20260506202157 0 238 3.0 9.0 0.00 0.67 0.67 1004.6
20260506201655 0 255 6.0 9.0 0.00 0.67 0.67 1004.2
20260506201151 0 235 5.0 11.0 0.00 0.67 0.67 1004.7
20260506200648 0 311 7.0 8.0 0.00 0.67 0.67 1004.7
20260506200144 0 240 4.0 7.0 0.00 0.67 0.67 1004.5
20260506195641 0 244 3.0 6.0 0.05 0.67 0.67 1004.6
20260506195137 0 289 5.0 11.0 0.05 0.67 0.67 1004.6
20260506194634 0 249 6.0 8.0 0.00 0.66 0.66 1004.6
20260506194130 0 207 4.0 11.0 0.00 0.66 0.66 1004.7
20260506193628 0 233 4.0 9.0 0.00 0.66 0.66 1004.5